Location: Eyeline Observatory
(43.2182°N, 78.8632°W)
Time: 04:53:13
(UTC-04:00)

Envisat - Pass Details

Date: 10 October 2017
Orbit: 764 x 766 km, 98.2° (Epoch: 18 October)

Event Time Altitude Azimuth Distance (km) Brightness Sun altitude
Exits shadow 19:27:28 12° 83° (E) 2,187 4.7 -9.4°
Maximum altitude 19:29:22 14° 59° (ENE) 2,035 4.7 -9.7°
Drops below altitude 10° 19:31:56 10° 29° (NNE) 2,310 5.2 -10.2°
Sets 19:35:19 0° 5° (N) 3,241 6.2 -10.8°
